Weather History for Naples, FL

Change the Weather History Date:

Friday, December 7, 2012

  Actual Average Record
Temperature  
Mean Temperature 71 °F 68 °F  
Max Temperature 79 °F 78 °F 89 °F (1972)
Min Temperature 62 °F 59 °F 39 °F (2010)
Degree Days  
Heating Degree Days 0 2  
Month to date heating degree days 0 9  
Since 1 July heating degree days 13 23  
Cooling Degree Days 6 5  
Month to date cooling degree days 43 35  
Year to date cooling degree days 4009 3854  
Growing Degree Days 20 (Base 50)    
Moisture  
Dew Point 65 °F    
Average Humidity 81    
Maximum Humidity 100    
Minimum Humidity 62    
Precipitation  
Precipitation 0.00 in 0.05 in 1.73 in (1979)
Month to date precipitation 0.11 0.32  
Year to date precipitation 36.26 50.76  
Snow  
Snow 0.00 in - - ()
Month to date snowfall 0.0  
Since 1 July snowfall 0.0  
Snow Depth 0.00 in    
Sea Level Pressure  
Sea Level Pressure 29.95 in    
Wind  
Wind Speed 3 mph (NNE)    
Max Wind Speed 9 mph    
Max Gust Speed 14 mph    
Visibility 10 miles    
Events      
T = Trace of Precipitation, MM = Missing Value Source: NWS Daily Summary

Daily Weather History Graph

Daily Weather History Graph

Search for Another Location

Airport:

Trip Planner

Search our weather history database for the weather conditions in past years. The results will help you decide how hot, cold, wet, or windy it might be!

Date:

Astronomy

Dec. 07, 2012 Rise Set
Actual Time 7:02 AM EST 5:35 PM EST
Civil Twilight 6:36 AM EST 6:00 PM EST
Nautical Twilight 6:08 AM EST 6:29 PM EST
Astronomical Twilight 5:40 AM EST 6:57 PM EST
Moon 12:51 AM EST (12/7) 1:03 PM EST (12/7)
Length of Visible Light 11h 23m
Length of Day
10h 33m
Last Quarter, 39% of the Moon is Illuminated
Dec 7
Last Quarter
Dec 13
New
Dec 20
First Quarter
Dec 28
Full
Jan 4
Last Quarter

Hourly Weather History & Observations

Time (EST) Temp. Dew Point Humidity Pressure Visibility Wind Dir Wind Speed Gust Speed Precip Events Conditions
12:53 AM 64.9 °F 64.9 °F 100% 29.94 in 10.0 mi Calm Calm - N/A   Clear
1:53 AM 64.0 °F 64.0 °F 100% 29.93 in 10.0 mi NE 3.5 mph - N/A   Clear
2:53 AM 63.0 °F 63.0 °F 100% 29.93 in 10.0 mi ENE 4.6 mph - N/A   Clear
3:53 AM 63.0 °F 63.0 °F 100% 29.93 in 10.0 mi Calm Calm - N/A   Clear
4:53 AM 63.0 °F 63.0 °F 100% 29.93 in 10.0 mi NE 4.6 mph - N/A   Clear
5:53 AM 62.1 °F 62.1 °F 100% 29.94 in 9.0 mi ENE 5.8 mph - N/A   Clear
6:53 AM 63.0 °F 63.0 °F 100% 29.94 in 7.0 mi Calm Calm - N/A   Clear
7:53 AM 64.0 °F 64.0 °F 100% 29.96 in 5.0 mi Calm Calm - N/A   Clear
8:53 AM 68.0 °F 66.9 °F 96% 29.98 in 8.0 mi ENE 4.6 mph - N/A   Clear
9:53 AM 72.0 °F 68.0 °F 87% 29.99 in 10.0 mi ENE 5.8 mph - N/A   Clear
10:53 AM 75.9 °F 66.9 °F 74% 29.99 in 10.0 mi SE 4.6 mph - N/A   Partly Cloudy
11:53 AM 78.1 °F 64.9 °F 64% 29.96 in 10.0 mi Calm Calm - N/A   Scattered Clouds
12:53 PM 79.0 °F 66.9 °F 66% 29.94 in 10.0 mi WSW 4.6 mph - N/A   Scattered Clouds
1:53 PM 78.1 °F 66.0 °F 66% 29.91 in 10.0 mi West 6.9 mph - N/A   Scattered Clouds
2:53 PM 78.1 °F 64.9 °F 64% 29.91 in 10.0 mi West 6.9 mph - N/A   Clear
3:53 PM 78.1 °F 64.0 °F 62% 29.91 in 10.0 mi West 6.9 mph - N/A   Scattered Clouds
4:53 PM 75.0 °F 64.9 °F 71% 29.92 in 10.0 mi WNW 8.1 mph - N/A   Scattered Clouds
5:53 PM 72.0 °F 66.0 °F 81% 29.92 in 10.0 mi WNW 3.5 mph - N/A   Clear
6:53 PM 71.1 °F 66.9 °F 87% 29.94 in 10.0 mi NW 3.5 mph - N/A   Clear
9:53 PM 70.0 °F 66.0 °F 87% 29.97 in 10.0 mi NE 3.5 mph - N/A   Overcast
10:53 PM 68.0 °F 64.0 °F 87% 29.98 in 10.0 mi East 3.5 mph - N/A   Clear
11:53 PM 66.9 °F 64.9 °F 93% 29.98 in 10.0 mi Calm Calm - N/A   Clear